sat.trackr.live / text

‹ back to catalog

TIANMU-1 08

NORAD 57400 · 2023-101B

PAYLOAD ACTIVE UNKNOWN

§ Identity

Operator
Country
PRC
Launch date
2023-07-20
Launch site
JSC
Launch vehicle
Mass (kg)
RCS (m²)

Purposes: earth_obs

External: N2YO · Heavens-Above · Gunter

§ Orbital elements

Epoch: 2026-05-24T13:58:35.815008Z

Period
94.15 min
Inclination
97.2597°
Eccentricity
0.0003773
Mean motion
15.29496153 rev/d
Perigee alt
474.7 km
Apogee alt
479.9 km
Semi-major
6,855.5 km
B*
2.1406e-4
RAAN
195.5705°
Arg perigee
177.7343°
Mean anomaly
182.3915°
Rev number
15,803

§ Raw data

TIANMU-1 081 57400U 23101B   26144.58235897  .00006048  00000+0  21406-3 0  99902 57400  97.2597 195.5705 0003773 177.7343 182.3915 15.29496153158032

JSON: /api/v1/satellites/57400 · /tle

For live sub-satellite position, see the globe view (requires WebGL).

§ Visibility from observer

Set your observer location to see the next 7 days of passes ≥ 10°. The values pass through the URL so the page stays shareable.

No JS? Fill the form by hand. The geolocation button needs JavaScript.